TimeEDT,TemperatureF,Dew PointF,Humidity,Sea Level PressureIn,VisibilityMPH,Wind Direction,Wind SpeedMPH,Gust SpeedMPH,PrecipitationIn,Events,Conditions,WindDirDegrees,DateUTC
12:51 AM,59.0,51.1,75,30.31,10.0,NNE,8.1,-,N/A,,Overcast,30,2013-10-14 04:51:00
1:51 AM,57.9,51.1,78,30.31,10.0,NNE,8.1,-,N/A,,Overcast,30,2013-10-14 05:51:00
2:51 AM,57.9,48.0,70,30.32,10.0,NNE,12.7,-,N/A,,Overcast,30,2013-10-14 06:51:00
3:51 AM,57.9,46.0,65,30.33,10.0,NNE,11.5,-,N/A,,Overcast,20,2013-10-14 07:51:00
4:51 AM,57.0,46.9,69,30.34,10.0,NNE,11.5,-,N/A,,Overcast,30,2013-10-14 08:51:00
5:51 AM,57.0,45.0,64,30.34,10.0,NE,12.7,-,N/A,,Overcast,40,2013-10-14 09:51:00
6:51 AM,55.9,45.0,67,30.35,10.0,NNE,11.5,18.4,N/A,,Overcast,30,2013-10-14 10:51:00
7:51 AM,55.0,45.0,69,30.36,10.0,NNE,10.4,-,N/A,,Clear,30,2013-10-14 11:51:00
8:51 AM,57.0,45.0,64,30.37,10.0,NNE,12.7,-,N/A,,Partly Cloudy,30,2013-10-14 12:51:00
9:51 AM,59.0,45.0,60,30.37,10.0,NE,10.4,-,N/A,,Clear,50,2013-10-14 13:51:00
10:51 AM,59.0,43.0,55,30.37,10.0,NE,9.2,-,N/A,,Clear,50,2013-10-14 14:51:00
11:51 AM,60.1,41.0,49,30.37,10.0,NNE,11.5,-,N/A,,Clear,20,2013-10-14 15:51:00
12:51 PM,61.0,43.0,52,30.35,10.0,NNE,6.9,-,N/A,,Clear,30,2013-10-14 16:51:00
1:51 PM,60.1,42.1,51,30.33,10.0,NNW,9.2,-,N/A,,Clear,340,2013-10-14 17:51:00
2:51 PM,60.1,41.0,49,30.32,10.0,North,6.9,-,N/A,,Clear,360,2013-10-14 18:51:00
3:51 PM,60.1,41.0,49,30.31,10.0,NNE,5.8,-,N/A,,Clear,20,2013-10-14 19:51:00
4:51 PM,60.1,39.0,46,30.30,10.0,NNW,5.8,-,N/A,,Clear,340,2013-10-14 20:51:00
5:51 PM,59.0,42.1,53,30.30,10.0,NE,6.9,-,N/A,,Clear,40,2013-10-14 21:51:00
6:51 PM,55.0,42.1,62,30.30,10.0,NE,4.6,-,N/A,,Clear,40,2013-10-14 22:51:00
7:51 PM,51.1,44.1,77,30.31,8.0,Calm,Calm,-,N/A,,Clear,0,2013-10-14 23:51:00
8:51 PM,48.9,43.0,80,30.31,10.0,Calm,Calm,-,N/A,,Clear,0,2013-10-15 00:51:00
9:51 PM,48.0,43.0,83,30.30,10.0,Calm,Calm,-,N/A,,Clear,0,2013-10-15 01:51:00
10:51 PM,48.9,42.1,77,30.29,10.0,Calm,Calm,-,N/A,,Clear,0,2013-10-15 02:51:00
11:51 PM,48.9,42.1,77,30.28,10.0,Calm,Calm,-,N/A,,Mostly Cloudy,0,2013-10-15 03:51:00